177P/Barnard 2 (2006)

Japanese version
Home page
Total 6,336 html files since Dec. 4, 1995
Updated on April 20, 2007

---------------------------------------------------------------------

* Profile

Designation 177P/2006 M3
Rediscovery Date June 23, 2006
Magnitude 17.1 mag
Rediscoverer Lincoln Laboratory Near-Earth Asteroid Research project

* Pictures

* Orbital Elements

Epoch 2006 Aug. 13.0 TT = JDT 2453960.5
T 2006 Aug. 28.68844 TT                                 MPC
q   1.1072152            (2000.0)            P               Q
n   0.00823844     Peri.   60.46082     +0.76133892     +0.38998703
a  24.2794796      Node   272.06643     -0.60679227     +0.71001404
e   0.9543971      Incl.   31.21748     +0.22839920     +0.58633624
P 119.64

* Finding Charts

* Magnitudes Graph

        m1 =  12.5 + 5 log d +  25   log r          [   ,-47]  (             - 2006 July 12)
        m1 = -22.5 + 5 log d + 750   log r(t + 35)  [-47,-35]  (2006 July 12 - 2006 July 24)
        m1 =   9.7 + 5 log d +  10   log r          [-35,  0]  (2006 July 24 - 2006 Aug. 28)
        m1 =   9.0 + 5 log d +  25.0 log r          [  0, 70]  (2006 Aug. 28 - 2006 Nov.  6)
        m1 =  11.7 + 5 log d +  25   log r          [ 70,   ]  (2006 Nov.  6 -             )

---------------------------------------------------------------------

The orbital elements are published on M.P.E.C. 2006-M38.
The charts are made with StellaNavigator Ver.2.0 for Windows (AstroArts / ASCII).
The magnitudes graphs are made with Comet for Windows.

---------------------------------------------------------------------

Copyright(C) 1995-2008 Seiichi Yoshida (comet@aerith.net). All rights reserved.